KI6IKQ Weather Reports


Display with metric or nautical units.
time (UTC)temp
F
wind
direction
speed
MPH
gust
MPH
rain 1hr
in
rain 24hr
in
rain mn
in
humidity
%
barometer
mb
20260503232703 72 277 3.0 8.0 0.00 0.00 0.00 53 1010.7
20260503231803 72 290 3.0 11.0 0.00 0.00 0.00 53 1010.8
20260503230903 72 290 3.0 12.0 0.00 0.00 0.00 52 1010.9
20260503230003 72 325 3.0 11.0 0.00 0.00 0.00 54 1010.9
20260503225403 72 312 3.0 11.0 0.00 0.00 0.00 52 1010.9
20260503224503 72 285 3.0 10.0 0.00 0.00 0.00 53 1010.9
20260503223606 72 285 3.0 9.0 0.00 0.00 0.00 54 1011.0
20260503222703 71 293 3.0 11.0 0.00 0.00 0.00 55 1011.1
20260503221803 70 265 3.0 9.0 0.00 0.00 0.00 56 1011.0
20260503220903 71 296 3.0 11.0 0.00 0.00 0.00 53 1011.1
20260503220003 71 309 3.0 10.0 0.00 0.00 0.00 54 1011.1
20260503215406 72 311 3.0 15.0 0.00 0.00 0.00 52 1011.1
20260503214503 71 302 3.0 8.0 0.00 0.00 0.00 56 1011.3
20260503213603 71 297 3.0 8.0 0.00 0.00 0.00 53 1011.4
20260503212703 71 327 3.0 9.0 0.00 0.00 0.00 55 1011.5
20260503211803 71 337 3.0 11.0 0.00 0.00 0.00 54 1011.4
20260503210924 72 284 2.0 9.0 0.00 0.00 0.00 54 1011.5
20260503210003 71 341 4.0 13.0 0.00 0.00 0.00 56 1011.4
20260503205403 71 308 3.0 8.0 0.00 0.00 0.00 55 1011.4
20260503204503 71 312 3.0 10.0 0.00 0.00 0.00 56 1011.4
20260503203603 71 324 3.0 11.0 0.00 0.00 0.00 56 1011.4
20260503202703 70 311 3.0 8.0 0.00 0.00 0.00 57 1011.4
20260503201803 70 290 3.0 8.0 0.00 0.00 0.00 57 1011.4
20260503200903 70 318 4.0 12.0 0.00 0.00 0.00 56 1011.4
20260503200003 69 275 2.0 9.0 0.00 0.00 0.00 58 1011.5
20260503195403 69 274 2.0 5.0 0.00 0.00 0.00 56 1011.6
20260503194503 70 284 2.0 9.0 0.00 0.00 0.00 55 1011.8
20260503193603 70 280 2.0 7.0 0.00 0.00 0.00 57 1011.8
20260503192703 70 278 2.0 8.0 0.00 0.00 0.00 56 1011.8
20260503191803 69 320 2.0 5.0 0.00 0.00 0.00 58 1011.7
20260503190903 69 293 2.0 8.0 0.00 0.00 0.00 56 1011.9
20260503190003 69 281 2.0 5.0 0.00 0.00 0.00 58 1011.8
20260503185406 69 287 3.0 12.0 0.00 0.00 0.00 56 1011.8
20260503184503 69 282 2.0 8.0 0.00 0.00 0.00 57 1011.8
20260503183603 69 334 3.0 14.0 0.00 0.00 0.00 57 1011.7
20260503182703 68 286 3.0 14.0 0.00 0.00 0.00 58 1011.8
20260503181803 68 269 2.0 10.0 0.00 0.00 0.00 58 1011.7
20260503180904 68 271 2.0 8.0 0.00 0.00 0.00 61 1011.9
20260503180003 67 267 2.0 9.0 0.00 0.00 0.00 61 1011.8
20260503175403 67 266 2.0 10.0 0.00 0.00 0.00 61 1011.8
20260503174503 66 265 2.0 7.0 0.00 0.00 0.00 62 1011.8
20260503173603 66 269 3.0 11.0 0.00 0.00 0.00 61 1011.8
20260503172703 66 267 2.0 7.0 0.00 0.00 0.00 62 1011.6
20260503171803 66 298 3.0 6.0 0.00 0.00 0.00 61 1011.8
20260503170903 66 316 2.0 8.0 0.00 0.00 0.00 64 1011.7
20260503150903 57 228 0.0 2.0 0.00 0.00 0.00 82 1011.2
20260503130903 55 296 1.0 3.0 0.00 0.00 0.00 82 1009.9
20260503080903 56 340 1.0 3.0 0.00 0.00 0.00 82 1010.0
20260503072703 56 309 2.0 4.0 0.00 0.00 0.00 82 1010.0
20260503071803 56 325 2.0 3.0 0.00 0.00 0.00 81 1010.1
20260503070903 56 334 2.0 3.0 0.00 0.00 0.00 81 1010.1
20260503054524 57 317 2.0 6.0 0.00 0.00 0.00 78 1010.4
20260503053624 57 324 2.0 9.0 0.00 0.00 0.00 78 1010.3
20260503052703 57 311 2.0 8.0 0.00 0.00 0.00 78 1010.4
20260503051803 57 310 2.0 7.0 0.00 0.00 0.00 77 1010.2
20260503050903 58 314 2.0 5.0 0.00 0.00 0.00 77 1010.3
20260503050003 58 320 2.0 8.0 0.00 0.00 0.00 76 1010.3
20260503045403 58 322 2.0 8.0 0.00 0.00 0.00 76 1010.3
20260503044503 58 308 2.0 8.0 0.00 0.00 0.00 76 1010.2
20260503043603 58 313 2.0 8.0 0.00 0.00 0.00 75 1010.2
20260503042703 59 317 3.0 11.0 0.00 0.00 0.00 74 1010.1
20260503041803 59 318 3.0 9.0 0.00 0.00 0.00 74 1010.1
20260503040903 60 320 2.0 8.0 0.00 0.00 0.00 74 1010.1
20260503040003 60 330 3.0 8.0 0.00 0.00 0.00 73 1010.1
20260503035403 60 323 2.0 8.0 0.00 0.00 0.00 73 1009.9
20260503034503 61 306 2.0 6.0 0.00 0.00 0.00 73 1009.9
20260503033603 61 310 2.0 6.0 0.00 0.00 0.00 72 1009.6
20260503032703 62 301 2.0 8.0 0.00 0.00 0.00 71 1009.7
20260503031803 62 312 2.0 10.0 0.00 0.00 0.00 71 1009.6
20260503030903 62 300 2.0 8.0 0.00 0.00 0.00 70 1009.3
20260503030024 63 308 2.0 7.0 0.00 0.00 0.00 69 1009.4
20260503025403 63 306 2.0 8.0 0.00 0.00 0.00 68 1009.4
20260503024503 64 313 2.0 9.0 0.00 0.00 0.00 68 1009.3
20260503023603 65 297 2.0 9.0 0.00 0.00 0.00 67 1009.1
20260503022703 65 295 2.0 7.0 0.00 0.00 0.00 66 1009.0
20260503021803 66 298 2.0 7.0 0.00 0.00 0.00 65 1009.0
20260503020903 67 300 2.0 7.0 0.00 0.00 0.00 65 1008.8
20260503020003 67 301 2.0 8.0 0.00 0.00 0.00 64 1008.9
20260503015403 68 294 2.0 7.0 0.00 0.00 0.00 63 1008.9
20260503014503 69 292 2.0 9.0 0.00 0.00 0.00 62 1008.8
20260503013624 69 315 2.0 6.0 0.00 0.00 0.00 63 1008.9
20260503012724 70 338 3.0 10.0 0.00 0.00 0.00 63 1009.1
20260503011824 71 326 4.0 10.0 0.00 0.00 0.00 61 1009.0
20260503010924 71 333 3.0 9.0 0.00 0.00 0.00 60 1008.9
20260503010024 72 335 3.0 9.0 0.00 0.00 0.00 59 1009.1
20260503005424 73 336 3.0 9.0 0.00 0.00 0.00 59 1009.0
20260503004503 73 336 3.0 8.0 0.00 0.00 0.00 58 1009.1
20260503003603 74 335 3.0 10.0 0.00 0.00 0.00 58 1009.2
20260503002703 74 334 3.0 11.0 0.00 0.00 0.00 57 1009.2
20260503001803 75 318 3.0 10.0 0.00 0.00 0.00 57 1009.0
20260503000903 75 331 3.0 10.0 0.00 0.00 0.00 55 1009.1
20260503000024 75 325 3.0 11.0 0.00 0.00 0.00 55 1009.0
20260502235403 75 325 3.0 8.0 0.00 0.00 0.00 54 1009.1
20260502234503 75 326 4.0 8.0 0.00 0.00 0.00 53 1009.1
20260502233603 75 325 3.0 8.0 0.00 0.00 0.00 55 1009.2